Date String (YYYY-MM-DD hh:mm:ss) UTC,Instrument flags,Ambient pressure (hPa),Sample flow (lpm),Bypass flow (lpm),Sample temperature (°C),Ambient temperature (°C),ASC tube jacket temperature (°C),LED temperature (°C),Box temperature (°C),Sample RH (%),Span deviation,Mass concentration (μg/m³),Mass concentration (μg/m³),Mass concentration (μg/m³)
DateTimeUTC,F1_M11,P_M11,Q1_M11,Q2_M11,T1_M11,T2_M11,T3_M11,T4_M11,T5_M11,U1_M11,ZSPAN_M11,X0_M11,X2_M11,X1_M11
2022-01-02 12:00:00,,0824.8,5.00,0.00,22.9,23.2,00.0,31.7,24.7,05.9,0000.0,0000.67,0000.05,0000.01
2022-01-02 12:01:00,,0824.8,5.01,0.00,22.8,22.9,00.0,31.7,24.6,05.9,0000.0,0000.69,0000.05,0000.01
2022-01-02 12:02:00,,0824.8,4.99,0.00,22.8,22.7,00.0,31.7,24.5,05.9,0000.0,0000.67,0000.04,0000.01
2022-01-02 12:03:00,,0824.8,5.00,0.00,22.8,22.5,00.0,31.7,24.4,05.7,0000.0,0000.66,0000.04,0000.01
2022-01-02 12:04:00,,0824.8,5.00,0.00,22.7,22.3,00.0,31.7,24.4,05.7,0000.0,0000.67,0000.04,0000.01
2022-01-02 12:05:00,,0824.8,5.01,0.00,22.7,22.2,00.0,31.7,24.3,05.5,0000.0,0000.62,0000.02,0000.01
2022-01-02 12:06:00,,0824.7,5.00,0.00,22.6,22.1,00.0,31.7,24.2,05.2,0000.0,0000.62,0000.02,0000.01
2022-01-02 12:07:00,,0824.7,4.99,0.00,22.6,22.0,00.0,31.6,24.2,05.3,0000.0,0000.82,0000.02,0000.01
2022-01-02 12:08:00,,0824.7,5.02,0.00,22.5,21.9,00.0,31.6,24.1,05.5,0000.0,0001.07,0000.03,0000.01
2022-01-02 12:09:00,,0824.8,4.99,0.00,22.6,22.2,00.0,31.6,24.2,05.6,0000.0,0001.07,0000.03,0000.01
2022-01-02 12:10:00,,0824.8,5.00,0.00,22.7,22.9,00.0,31.7,24.4,05.4,0000.0,0000.78,0000.03,0000.01
2022-01-02 12:11:00,,0824.8,5.01,0.00,22.8,23.5,00.0,31.7,24.7,05.1,0000.0,0000.49,0000.03,0000.01
2022-01-02 12:12:00,,0824.8,5.00,0.00,22.9,23.5,00.0,31.7,24.7,04.9,0000.0,0000.47,0000.02,0000.01
2022-01-02 12:13:00,,0824.8,5.01,0.00,22.9,23.2,00.0,31.7,24.7,05.0,0000.0,0000.47,0000.02,0000.01
2022-01-02 12:14:00,,0824.7,4.99,0.00,22.8,22.9,00.0,31.7,24.6,05.1,0000.0,0000.47,0000.02,0000.01
2022-01-02 12:15:00,,0824.7,5.01,0.00,22.8,22.6,00.0,31.7,24.5,05.3,0000.0,0000.47,0000.02,0000.01
2022-01-02 12:16:00,,0824.7,4.99,0.00,22.8,22.4,00.0,31.7,24.4,05.4,0000.0,0000.47,0000.02,0000.01
2022-01-02 12:17:00,,0824.7,5.03,0.00,22.7,22.3,00.0,31.7,24.3,05.5,0000.0,0000.47,0000.02,0000.01
2022-01-02 12:18:00,,0824.8,4.99,0.00,22.7,22.1,00.0,31.7,24.2,05.6,0000.0,0000.32,0000.02,0000.01
2022-01-02 12:19:00,,0824.9,4.99,0.00,22.6,22.0,00.0,31.7,24.2,05.7,0000.0,0000.42,0000.02,0000.01
2022-01-02 12:20:00,,0824.9,5.00,0.00,22.6,22.0,00.0,31.7,24.1,05.4,0000.0,0000.54,0000.03,0000.01
2022-01-02 12:21:00,,0825.0,5.00,0.00,22.5,21.9,00.0,31.6,24.1,05.2,0000.0,0000.74,0000.05,0000.01
2022-01-02 12:22:00,,0825.1,5.01,0.00,22.6,22.3,00.0,31.6,24.2,05.2,0000.0,0001.04,0000.06,0000.01
2022-01-02 12:23:00,,0825.1,5.00,0.00,22.7,23.1,00.0,31.7,24.5,05.2,0000.0,0001.10,0000.06,0000.01
2022-01-02 12:24:00,,0825.0,4.99,0.00,22.8,23.6,00.0,31.7,24.7,05.3,0000.0,0001.10,0000.06,0000.01
2022-01-02 12:25:00,,0825.0,5.00,0.00,22.9,23.4,00.0,31.7,24.7,05.2,0000.0,0001.11,0000.07,0000.01
2022-01-02 12:26:00,,0825.1,5.00,0.00,22.9,23.1,00.0,31.7,24.7,05.0,0000.0,0001.21,0000.09,0000.01
2022-01-02 12:27:00,,0825.0,5.00,0.00,22.9,22.9,00.0,31.7,24.6,05.1,0000.0,0001.23,0000.09,0000.01
2022-01-02 12:28:00,,0825.0,5.01,0.00,22.8,22.7,00.0,31.7,24.5,05.3,0000.0,0001.23,0000.09,0000.01
2022-01-02 12:29:00,,0825.1,5.01,0.00,22.8,22.5,00.0,31.7,24.4,05.5,0000.0,0002.10,0000.09,0000.01
2022-01-02 12:30:00,,0825.1,4.99,0.00,22.7,22.3,00.0,31.7,24.4,05.5,0000.0,0002.61,0000.08,0000.01
2022-01-02 12:31:00,,0825.2,5.00,0.00,22.7,22.2,00.0,31.7,24.3,05.4,0000.0,0002.49,0000.07,0000.01
2022-01-02 12:32:00,,0825.2,5.02,0.00,22.7,22.1,00.0,31.7,24.3,05.6,0000.0,0002.31,0000.05,0000.01
2022-01-02 12:33:00,,0825.1,4.99,0.00,22.6,22.0,00.0,31.7,24.2,05.6,0000.0,0002.05,0000.04,0000.01
2022-01-02 12:34:00,,0825.1,5.02,0.00,22.6,21.9,00.0,31.7,24.2,05.7,0000.0,0001.95,0000.03,0000.00
2022-01-02 12:35:00,,0825.2,4.99,0.00,22.6,22.2,00.0,31.7,24.2,05.8,0000.0,0001.95,0000.03,0000.00
2022-01-02 12:36:00,,0825.2,5.00,0.00,22.7,22.9,00.0,31.7,24.5,05.7,0000.0,0002.08,0000.04,0000.00
2022-01-02 12:37:00,,0825.3,5.00,0.00,22.8,23.6,00.0,31.7,24.8,05.4,0000.0,0002.02,0000.03,0000.00
2022-01-02 12:38:00,,0825.3,5.00,0.00,22.9,23.6,00.0,31.8,24.8,05.2,0000.0,0001.99,0000.02,0000.00
2022-01-02 12:39:00,,0825.2,5.00,0.00,22.9,23.3,00.0,31.8,24.8,05.1,0000.0,0003.46,0000.02,0000.00
2022-01-02 12:40:00,,0825.3,5.00,0.00,22.9,23.0,00.0,31.8,24.7,05.1,0000.0,0003.11,0000.02,0000.00
2022-01-02 12:41:00,,0825.4,4.99,0.00,22.9,22.8,00.0,31.8,24.6,04.9,0000.0,0001.79,0000.02,0000.00
2022-01-02 12:42:00,,0825.4,5.02,0.00,22.8,22.6,00.0,31.8,24.5,04.9,0000.0,0001.86,0000.03,0000.00
2022-01-02 12:43:00,,0825.4,4.99,0.00,22.8,22.4,00.0,31.8,24.4,04.8,0000.0,0002.08,0000.08,0000.01
2022-01-02 12:44:00,,0825.4,5.02,0.00,22.7,22.2,00.0,31.8,24.3,04.7,0000.0,0002.25,0000.09,0000.01
2022-01-02 12:45:00,,0825.4,4.99,0.00,22.7,22.1,00.0,31.7,24.2,04.7,0000.0,0002.25,0000.09,0000.01
2022-01-02 12:46:00,,0825.4,5.00,0.00,22.6,22.0,00.0,31.7,24.1,04.7,0000.0,0002.25,0000.09,0000.01
2022-01-02 12:47:00,,0825.4,5.00,0.00,22.6,21.8,00.0,31.7,24.1,04.7,0000.0,0002.13,0000.08,0000.01
2022-01-02 12:48:00,,0825.4,4.99,0.00,22.6,22.2,00.0,31.7,24.2,04.6,0000.0,0002.08,0000.07,0000.01
2022-01-02 12:49:00,,0825.4,5.00,0.00,22.7,22.9,00.0,31.7,24.4,04.6,0000.0,0002.19,0000.08,0000.01
2022-01-02 12:50:00,,0825.5,5.01,0.00,22.8,23.5,00.0,31.8,24.7,04.6,0000.0,0000.92,0000.08,0000.01
2022-01-02 12:51:00,,0825.5,5.00,0.00,22.9,23.4,00.0,31.8,24.7,04.8,0000.0,0000.60,0000.08,0000.01
2022-01-02 12:52:00,,0825.5,4.99,0.00,22.9,23.1,00.0,31.8,24.6,04.9,0000.0,0000.60,0000.08,0000.01
2022-01-02 12:53:00,,0825.5,5.00,0.00,22.8,22.8,00.0,31.8,24.6,04.8,0000.0,0000.56,0000.08,0000.01
2022-01-02 12:54:00,,0825.5,5.01,0.00,22.8,22.6,00.0,31.8,24.5,04.8,0000.0,0001.14,0000.04,0000.01
2022-01-02 12:55:00,,0825.5,4.99,0.00,22.8,22.4,00.0,31.8,24.4,04.8,0000.0,0001.74,0000.02,0000.01
2022-01-02 12:56:00,,0825.6,5.01,0.00,22.7,22.2,00.0,31.7,24.3,04.7,0000.0,0001.74,0000.02,0000.01
2022-01-02 12:57:00,,0825.6,4.99,0.00,22.7,22.1,00.0,31.7,24.2,04.7,0000.0,0001.74,0000.02,0000.00
2022-01-02 12:58:00,,0825.5,4.99,0.00,22.6,21.9,00.0,31.7,24.1,04.7,0000.0,0001.78,0000.04,0000.00
2022-01-02 12:59:00,,0825.6,5.01,0.00,22.5,21.8,00.0,31.7,24.1,04.6,0000.0,0001.78,0000.04,0000.00
